IGO6225 VOMM-VABB

Flight info

Callsign IGO6225
Flight time 1h 25m
Altitude 38000
Route DOLKI2A DOLKI Q8 BEDOL MOLGO2A
Aircraft A20N/M-SDE2E3FGHIRWXY/LB1

Departure

Time 2026-04-21 14:07
Airport Chennai International Airport (VOMM)

Arrival

Time 2026-04-21 15:32
Airport Chhatrapati Shivaji Maharaj International Airport (VABB)
Time Latitude Longitude Altitude Speed Heading
2026-04-21 13:56 12.98223 80.15991 54 ft 0 kts 157°
2026-04-21 14:03 12.98214 80.15984 48 ft 3 kts 230°
2026-04-21 14:04 12.98228 80.15958 50 ft 8 kts 306°
2026-04-21 14:04 12.98283 80.15881 51 ft 18 kts 306°
2026-04-21 14:04 12.98339 80.15735 53 ft 24 kts 285°
2026-04-21 14:04 12.98379 80.15588 53 ft 9 kts 285°
2026-04-21 14:05 12.98385 80.15565 51 ft 1 kts 285°
2026-04-21 14:05 12.98386 80.15563 53 ft 0 kts 285°
2026-04-21 14:05 12.98391 80.15543 49 ft 8 kts 283°
2026-04-21 14:06 12.98455 80.15445 51 ft 16 kts
2026-04-21 14:06 12.98538 80.15618 51 ft 54 kts 68°
2026-04-21 14:06 12.98800 80.16312 55 ft 153 kts 69°
2026-04-21 14:06 12.99275 80.17569 560 ft 210 kts 72°
2026-04-21 14:07 12.99793 80.18899 2326 ft 178 kts 72°
2026-04-21 14:07 13.00198 80.19910 4112 ft 145 kts 69°
2026-04-21 14:07 13.00642 80.20995 4358 ft 211 kts 63°
2026-04-21 14:07 13.01833 80.22261 4468 ft 284 kts 26°
2026-04-21 14:08 13.03825 80.22543 5852 ft 298 kts 352°
2026-04-21 14:08 13.05779 80.21783 7440 ft 304 kts 336°
2026-04-21 14:08 13.07673 80.20797 8951 ft 307 kts 335°
2026-04-21 14:08 13.09585 80.19797 10346 ft 311 kts 336°
2026-04-21 14:09 13.11622 80.18790 10969 ft 342 kts 338°
2026-04-21 14:09 13.13912 80.17758 11410 ft 376 kts 339°
2026-04-21 14:09 13.16403 80.16732 12283 ft 390 kts 341°
2026-04-21 14:09 13.18864 80.15587 13454 ft 399 kts 334°
2026-04-21 14:10 13.21280 80.14130 14524 ft 407 kts 329°
2026-04-21 14:10 13.23646 80.12486 15540 ft 414 kts 326°
2026-04-21 14:10 13.25973 80.10704 16580 ft 421 kts 323°
2026-04-21 14:10 13.28219 80.08744 17546 ft 427 kts 319°
2026-04-21 14:11 13.30423 80.06660 18424 ft 433 kts 316°
2026-04-21 14:11 13.32614 80.04513 19246 ft 438 kts 315°
2026-04-21 14:11 13.34807 80.02320 20054 ft 443 kts 314°
2026-04-21 14:11 13.37013 80.00091 20835 ft 448 kts 314°
2026-04-21 14:12 13.39239 79.97824 21608 ft 453 kts 314°
2026-04-21 14:12 13.41482 79.95536 22471 ft 455 kts 314°
2026-04-21 14:12 13.43730 79.93245 23415 ft 455 kts 313°
2026-04-21 14:12 13.45981 79.90953 24149 ft 456 kts 313°
2026-04-21 14:13 13.48110 79.88785 24831 ft 458 kts 313°
2026-04-21 14:13 13.50375 79.86477 25521 ft 460 kts 312°
2026-04-21 14:13 13.52653 79.84155 26200 ft 461 kts 312°
2026-04-21 14:13 13.54799 79.81930 26951 ft 423 kts 309°
2026-04-21 14:14 13.56737 79.79662 27746 ft 421 kts 306°
2026-04-21 14:14 13.58577 79.77377 28580 ft 420 kts 304°
2026-04-21 14:14 13.60393 79.75061 29422 ft 403 kts 304°
2026-04-21 14:14 13.62113 79.72843 30238 ft 394 kts 303°
2026-04-21 14:15 13.63798 79.70643 31022 ft 389 kts 302°
2026-04-21 14:15 13.65421 79.68497 30981 ft 410 kts 302°
2026-04-21 14:15 13.66201 79.67456 30934 ft 419 kts 302°
2026-04-21 14:15 13.68012 79.65027 30941 ft 437 kts 302°
2026-04-21 14:16 13.69898 79.62495 30946 ft 454 kts 302°
2026-04-21 14:16 13.71850 79.59873 30946 ft 470 kts 303°
2026-04-21 14:16 13.73833 79.57221 30949 ft 464 kts 303°
2026-04-21 14:17 13.77783 79.51960 30941 ft 467 kts 303°
2026-04-21 14:17 13.81746 79.46675 30946 ft 466 kts 303°
2026-04-21 14:18 13.85700 79.41397 30969 ft 467 kts 303°
2026-04-21 14:18 13.89670 79.36091 31455 ft 467 kts 302°
2026-04-21 14:18 13.91647 79.33452 32156 ft 464 kts 302°
2026-04-21 14:19 13.93614 79.30826 32843 ft 462 kts 302°
2026-04-21 14:19 13.95569 79.28215 33511 ft 461 kts 302°
2026-04-21 14:19 13.97524 79.25600 34108 ft 460 kts 302°
2026-04-21 14:19 13.99471 79.22992 34621 ft 460 kts 302°
2026-04-21 14:20 14.01393 79.20415 35098 ft 460 kts 302°
2026-04-21 14:20 14.03342 79.17800 35578 ft 461 kts 302°
2026-04-21 14:20 14.05294 79.15180 36071 ft 461 kts 301°
2026-04-21 14:20 14.07246 79.12558 36547 ft 461 kts 301°
2026-04-21 14:21 14.09200 79.09933 37034 ft 462 kts 301°
2026-04-21 14:21 14.11153 79.07309 37507 ft 462 kts 301°
2026-04-21 14:21 14.13099 79.04697 37784 ft 458 kts 301°
2026-04-21 14:21 14.15040 79.02086 37901 ft 460 kts 301°
2026-04-21 14:22 14.16990 78.99457 37955 ft 463 kts 301°
2026-04-21 14:22 14.20906 78.94175 37976 ft 463 kts 301°
2026-04-21 14:23 14.24806 78.88920 37978 ft 460 kts 301°
2026-04-21 14:23 14.28642 78.83646 37973 ft 459 kts 298°
2026-04-21 14:24 14.32253 78.78220 37978 ft 458 kts 297°
2026-04-21 14:24 14.35776 78.72772 37974 ft 456 kts 297°
2026-04-21 14:25 14.39248 78.67352 37972 ft 457 kts 297°
2026-04-21 14:25 14.42743 78.61875 37976 ft 457 kts 296°
2026-04-21 14:26 14.46230 78.56406 37974 ft 456 kts 296°
2026-04-21 14:26 14.49707 78.50946 37985 ft 455 kts 296°
2026-04-21 14:27 14.53180 78.45488 37984 ft 455 kts 296°
2026-04-21 14:27 14.56650 78.40028 37992 ft 455 kts 296°
2026-04-21 14:28 14.60114 78.34574 37993 ft 453 kts 296°
2026-04-21 14:28 14.63568 78.29133 38002 ft 453 kts 296°
2026-04-21 14:29 14.67019 78.23691 38007 ft 453 kts 296°
2026-04-21 14:29 14.70469 78.18244 38017 ft 453 kts 296°
2026-04-21 14:30 14.73913 78.12809 38013 ft 451 kts 296°
2026-04-21 14:30 14.77381 78.07315 38023 ft 467 kts 296°
2026-04-21 14:30 14.79171 78.04467 38018 ft 478 kts 296°
2026-04-21 14:31 14.80974 78.01597 38026 ft 488 kts 296°
2026-04-21 14:31 14.84675 77.95741 38026 ft 478 kts 296°
2026-04-21 14:32 14.88310 77.90008 38047 ft 478 kts 296°
2026-04-21 14:32 14.91956 77.84238 38039 ft 480 kts 296°
2026-04-21 14:33 14.95595 77.78474 38042 ft 478 kts 296°
2026-04-21 14:33 14.99222 77.72723 38053 ft 478 kts 296°
2026-04-21 14:34 15.02850 77.66961 38062 ft 478 kts 296°
2026-04-21 14:34 15.06469 77.61213 38067 ft 476 kts 296°
2026-04-21 14:35 15.10077 77.55471 38074 ft 476 kts 296°
2026-04-21 14:35 15.13687 77.49723 38077 ft 476 kts 296°
2026-04-21 14:36 15.17288 77.43985 38078 ft 475 kts 295°
2026-04-21 14:36 15.20855 77.38294 38089 ft 475 kts 295°
2026-04-21 14:37 15.24450 77.32554 38090 ft 475 kts 295°
2026-04-21 14:37 15.28042 77.26815 38085 ft 474 kts 295°
2026-04-21 14:38 15.31626 77.21086 38090 ft 474 kts 295°
2026-04-21 14:38 15.35208 77.15350 38091 ft 475 kts 295°
2026-04-21 14:39 15.38803 77.09611 38092 ft 476 kts 297°
2026-04-21 14:39 15.42712 77.04047 38092 ft 479 kts 300°
2026-04-21 14:40 15.46787 76.98562 38097 ft 481 kts 300°
2026-04-21 14:40 15.50881 76.93131 38104 ft 481 kts 301°
2026-04-21 14:41 15.55011 76.87675 38107 ft 481 kts 301°
2026-04-21 14:41 15.59139 76.82218 38113 ft 481 kts 301°
2026-04-21 14:42 15.63267 76.76753 38112 ft 481 kts 301°
2026-04-21 14:42 15.67392 76.71288 38120 ft 481 kts 301°
2026-04-21 14:43 15.71530 76.65838 38114 ft 480 kts 301°
2026-04-21 14:43 15.75673 76.60397 38119 ft 481 kts 301°
2026-04-21 14:44 15.79824 76.54941 38124 ft 482 kts 301°
2026-04-21 14:44 15.83976 76.49481 38128 ft 481 kts 301°
2026-04-21 14:45 15.88125 76.44021 38125 ft 482 kts 301°
2026-04-21 14:45 15.92254 76.38580 38132 ft 483 kts 301°
2026-04-21 14:46 15.96415 76.33094 38132 ft 483 kts 301°
2026-04-21 14:46 16.00576 76.27605 38134 ft 484 kts 301°
2026-04-21 14:47 16.04744 76.22101 38127 ft 485 kts 301°
2026-04-21 14:47 16.08919 76.16587 38126 ft 485 kts 301°
2026-04-21 14:48 16.13089 76.11080 38116 ft 485 kts 301°
2026-04-21 14:48 16.17262 76.05560 38116 ft 486 kts 301°
2026-04-21 14:49 16.21437 76.00029 38122 ft 485 kts 300°
2026-04-21 14:49 16.25568 75.94478 38108 ft 485 kts 300°
2026-04-21 14:50 16.28984 75.89852 38105 ft 486 kts 300°
2026-04-21 14:50 16.33762 75.83361 38096 ft 485 kts 300°
2026-04-21 14:51 16.37861 75.77780 38094 ft 485 kts 300°
2026-04-21 14:51 16.41951 75.72203 38098 ft 485 kts 300°
2026-04-21 14:52 16.46045 75.66613 38096 ft 485 kts 299°
2026-04-21 14:52 16.50131 75.61032 38097 ft 483 kts 299°
2026-04-21 14:53 16.54208 75.55453 38096 ft 484 kts 299°
2026-04-21 14:53 16.58282 75.49868 38094 ft 484 kts 299°
2026-04-21 14:54 16.62382 75.44314 38094 ft 483 kts 300°
2026-04-21 14:54 16.66541 75.38810 38097 ft 484 kts 300°
2026-04-21 14:55 16.70721 75.33302 38096 ft 484 kts 300°
2026-04-21 14:55 16.74896 75.27800 38092 ft 483 kts 300°
2026-04-21 14:56 16.79059 75.22307 38093 ft 483 kts 300°
2026-04-21 14:56 16.83221 75.16804 38095 ft 483 kts 300°
2026-04-21 14:57 16.86678 75.12229 38101 ft 483 kts 300°
2026-04-21 14:57 16.90854 75.06691 38098 ft 485 kts 300°
2026-04-21 14:58 16.95018 75.01173 38075 ft 482 kts 300°
2026-04-21 14:58 16.97090 74.98422 37743 ft 482 kts 300°
2026-04-21 14:58 16.99157 74.95679 37087 ft 478 kts 300°
2026-04-21 14:58 17.01204 74.92964 36185 ft 473 kts 300°
2026-04-21 14:59 17.03225 74.90281 35315 ft 468 kts 300°
2026-04-21 14:59 17.05869 74.86772 34222 ft 460 kts 300°
2026-04-21 14:59 17.07202 74.85000 33629 ft 457 kts 300°
2026-04-21 14:59 17.09150 74.82403 32805 ft 450 kts 300°
2026-04-21 15:00 17.11059 74.79848 32041 ft 442 kts 301°
2026-04-21 15:00 17.12931 74.77336 31294 ft 434 kts 301°
2026-04-21 15:00 17.14745 74.74899 30570 ft 427 kts 302°
2026-04-21 15:00 17.16578 74.72435 29823 ft 420 kts 302°
2026-04-21 15:01 17.18357 74.70045 28980 ft 414 kts 303°
2026-04-21 15:01 17.20092 74.67720 28150 ft 409 kts 303°
2026-04-21 15:01 17.21853 74.65357 27646 ft 415 kts 303°
2026-04-21 15:01 17.23661 74.62927 27336 ft 437 kts 304°
2026-04-21 15:02 17.25578 74.60346 27205 ft 460 kts 304°
2026-04-21 15:02 17.27585 74.57649 27098 ft 478 kts 304°
2026-04-21 15:02 17.29673 74.54849 26994 ft 497 kts 304°
2026-04-21 15:02 17.31811 74.51990 26944 ft 499 kts 304°
2026-04-21 15:03 17.33956 74.49128 26926 ft 506 kts 305°
2026-04-21 15:03 17.36150 74.46197 26910 ft 510 kts 305°
2026-04-21 15:03 17.38322 74.43303 26910 ft 503 kts 305°
2026-04-21 15:03 17.40488 74.40415 26894 ft 505 kts 305°
2026-04-21 15:04 17.42655 74.37525 26624 ft 503 kts 305°
2026-04-21 15:04 17.44800 74.34657 25748 ft 497 kts 305°
2026-04-21 15:04 17.46908 74.31830 24374 ft 488 kts 306°
2026-04-21 15:04 17.48974 74.29048 22850 ft 479 kts 306°
2026-04-21 15:05 17.50996 74.26325 21384 ft 467 kts 306°
2026-04-21 15:05 17.54896 74.21084 18707 ft 447 kts 307°
2026-04-21 15:05 17.56807 74.18518 18633 ft 445 kts 307°
2026-04-21 15:06 17.58674 74.16014 17928 ft 439 kts 307°
2026-04-21 15:06 17.60537 74.13515 16539 ft 431 kts 307°
2026-04-21 15:06 17.62362 74.11061 15062 ft 424 kts 308°
2026-04-21 15:06 17.64159 74.08638 13604 ft 423 kts 308°
2026-04-21 15:07 17.65984 74.06176 12820 ft 430 kts 308°
2026-04-21 15:07 17.67833 74.03687 12445 ft 430 kts 309°
2026-04-21 15:07 17.69668 74.01224 12148 ft 428 kts 309°
2026-04-21 15:07 17.71502 73.98767 12021 ft 430 kts 309°
2026-04-21 15:08 17.73365 73.96274 11959 ft 436 kts 309°
2026-04-21 15:08 17.75247 73.93746 11938 ft 441 kts 309°
2026-04-21 15:08 17.77126 73.91215 11928 ft 439 kts 309°
2026-04-21 15:08 17.78999 73.88685 11912 ft 440 kts 309°
2026-04-21 15:09 17.80875 73.86151 11916 ft 440 kts 309°
2026-04-21 15:09 17.82750 73.83618 11918 ft 439 kts 308°
2026-04-21 15:09 17.84624 73.81086 11914 ft 439 kts 308°
2026-04-21 15:09 17.86497 73.78554 11914 ft 440 kts 308°
2026-04-21 15:10 17.88371 73.76017 11899 ft 439 kts 308°
2026-04-21 15:10 17.90241 73.73491 11903 ft 438 kts 308°
2026-04-21 15:10 17.92113 73.70962 11900 ft 439 kts 308°
2026-04-21 15:10 17.93965 73.68457 11902 ft 439 kts 308°
2026-04-21 15:11 17.95835 73.65925 11901 ft 439 kts 308°
2026-04-21 15:11 17.97702 73.63395 11899 ft 439 kts 308°
2026-04-21 15:11 17.99574 73.60858 11892 ft 439 kts 308°
2026-04-21 15:11 18.01445 73.58324 11892 ft 439 kts 308°
2026-04-21 15:12 18.03313 73.55792 11893 ft 438 kts 308°
2026-04-21 15:12 18.05182 73.53258 11893 ft 439 kts 308°
2026-04-21 15:12 18.07048 73.50726 11892 ft 439 kts 308°
2026-04-21 15:12 18.08918 73.48187 11886 ft 439 kts 308°
2026-04-21 15:13 18.10782 73.45655 11882 ft 438 kts 308°
2026-04-21 15:13 18.12649 73.43118 11881 ft 439 kts 308°
2026-04-21 15:13 18.14612 73.40670 11797 ft 436 kts 316°
2026-04-21 15:13 18.17052 73.38844 10898 ft 427 kts 329°
2026-04-21 15:14 18.19687 73.37350 9903 ft 427 kts 334°
2026-04-21 15:14 18.22349 73.35993 9535 ft 426 kts 335°
2026-04-21 15:14 18.25030 73.34695 9172 ft 422 kts 336°
2026-04-21 15:14 18.27702 73.33442 9006 ft 421 kts 336°
2026-04-21 15:15 18.30389 73.32206 8929 ft 422 kts 337°
2026-04-21 15:15 18.33084 73.30979 8900 ft 421 kts 337°
2026-04-21 15:15 18.35739 73.29779 8883 ft 422 kts 337°
2026-04-21 15:15 18.38477 73.28547 8876 ft 422 kts 337°
2026-04-21 15:16 18.41141 73.27349 8874 ft 422 kts 337°
2026-04-21 15:16 18.43842 73.26135 8869 ft 422 kts 337°
2026-04-21 15:16 18.46546 73.24919 8873 ft 423 kts 337°
2026-04-21 15:16 18.49252 73.23703 8874 ft 423 kts 337°
2026-04-21 15:17 18.51955 73.22487 8872 ft 423 kts 337°
2026-04-21 15:17 18.54663 73.21269 8872 ft 424 kts 337°
2026-04-21 15:17 18.57377 73.20047 8871 ft 423 kts 337°
2026-04-21 15:17 18.60084 73.18827 8871 ft 424 kts 337°
2026-04-21 15:18 18.62797 73.17605 8869 ft 424 kts 337°
2026-04-21 15:18 18.65630 73.16777 8863 ft 423 kts 349°
2026-04-21 15:18 18.68544 73.16342 8863 ft 424 kts 354°
2026-04-21 15:18 18.71480 73.16053 8858 ft 423 kts 355°
2026-04-21 15:19 18.74416 73.15846 8859 ft 423 kts 357°
2026-04-21 15:19 18.77356 73.15691 8862 ft 423 kts 358°
2026-04-21 15:19 18.80297 73.15569 8859 ft 423 kts 358°
2026-04-21 15:19 18.83238 73.15468 8860 ft 423 kts 358°
2026-04-21 15:20 18.86184 73.15381 8856 ft 423 kts 359°
2026-04-21 15:20 18.89128 73.15319 8846 ft 423 kts
2026-04-21 15:20 18.91983 73.15983 8837 ft 422 kts 24°
2026-04-21 15:20 18.94357 73.17766 8839 ft 421 kts 47°
2026-04-21 15:21 18.95877 73.20374 8847 ft 419 kts 70°
2026-04-21 15:21 18.96312 73.23354 8857 ft 418 kts 92°
2026-04-21 15:21 18.95753 73.26347 8889 ft 415 kts 106°
2026-04-21 15:21 18.94956 73.29282 8959 ft 417 kts 106°
2026-04-21 15:22 18.94228 73.32249 8986 ft 417 kts 103°
2026-04-21 15:22 18.93831 73.35276 8849 ft 415 kts 90°
2026-04-21 15:22 18.94371 73.38220 7792 ft 407 kts 69°
2026-04-21 15:22 18.95882 73.40689 6330 ft 399 kts 46°
2026-04-21 15:23 18.98163 73.42299 5015 ft 398 kts 20°
2026-04-21 15:23 19.00811 73.42731 4574 ft 377 kts 356°
2026-04-21 15:23 19.03178 73.41996 4197 ft 341 kts 330°
2026-04-21 15:23 19.04969 73.40545 3988 ft 309 kts 319°
2026-04-21 15:24 19.06469 73.39065 3890 ft 281 kts 316°
2026-04-21 15:24 19.07770 73.37659 3846 ft 255 kts 314°
2026-04-21 15:24 19.08916 73.36333 3824 ft 234 kts 313°
2026-04-21 15:24 19.09931 73.35087 3802 ft 214 kts 311°
2026-04-21 15:25 19.10842 73.33910 3800 ft 203 kts 310°
2026-04-21 15:25 19.11709 73.32735 3801 ft 203 kts 308°
2026-04-21 15:25 19.12554 73.31526 3805 ft 217 kts 307°
2026-04-21 15:25 19.13523 73.30067 3807 ft 280 kts 306°
2026-04-21 15:26 19.14722 73.28135 3800 ft 345 kts 303°
2026-04-21 15:26 19.16032 73.25782 3790 ft 385 kts 300°
2026-04-21 15:26 19.17099 73.23198 3782 ft 385 kts 290°
2026-04-21 15:26 19.17729 73.20443 3772 ft 386 kts 280°
2026-04-21 15:27 19.17919 73.17639 3764 ft 388 kts 271°
2026-04-21 15:27 19.17512 73.14780 3755 ft 393 kts 252°
2026-04-21 15:27 19.16060 73.12337 3745 ft 397 kts 227°
2026-04-21 15:27 19.13770 73.10706 3738 ft 401 kts 204°
2026-04-21 15:28 19.11141 73.10098 3619 ft 369 kts 187°
2026-04-21 15:28 19.08820 73.09335 3304 ft 336 kts 212°
2026-04-21 15:28 19.07279 73.07677 3059 ft 304 kts 244°
2026-04-21 15:28 19.06829 73.05643 2876 ft 272 kts 278°
2026-04-21 15:29 19.07262 73.03815 2744 ft 245 kts 292°
2026-04-21 15:29 19.07788 73.02166 2572 ft 229 kts 292°
2026-04-21 15:29 19.08232 73.00596 2329 ft 220 kts 288°
2026-04-21 15:29 19.08542 72.99030 2028 ft 215 kts 284°
2026-04-21 15:30 19.08768 72.97490 1740 ft 209 kts 282°
2026-04-21 15:30 19.08923 72.95977 1473 ft 205 kts 277°
2026-04-21 15:30 19.08956 72.94490 1219 ft 200 kts 274°
2026-04-21 15:30 19.08951 72.93039 970 ft 197 kts 273°
2026-04-21 15:31 19.08939 72.91602 803 ft 186 kts 271°
2026-04-21 15:31 19.08923 72.90391 569 ft 146 kts 270°
2026-04-21 15:31 19.08891 72.89382 346 ft 138 kts 270°
2026-04-21 15:31 19.08874 72.88380 148 ft 137 kts 271°
2026-04-21 15:32 19.08912 72.87395 35 ft 125 kts 266°
2026-04-21 15:32 19.08866 72.86629 33 ft 83 kts 269°
2026-04-21 15:32 19.08863 72.86151 29 ft 49 kts 269°
2026-04-21 15:32 19.08861 72.85889 29 ft 23 kts 269°
2026-04-21 15:33 19.08864 72.85779 29 ft 11 kts 275°
2026-04-21 15:33 19.08870 72.85712 29 ft 7 kts 278°
2026-04-21 15:33 19.08878 72.85678 29 ft 4 kts 288°
2026-04-21 15:33 19.08882 72.85664 28 ft 3 kts 288°
2026-04-21 15:34 19.08889 72.85641 28 ft 5 kts 288°
2026-04-21 15:34 19.08905 72.85589 28 ft 10 kts 288°
2026-04-21 15:34 19.08939 72.85514 29 ft 13 kts 305°
2026-04-21 15:34 19.09015 72.85501 29 ft 13 kts 40°
2026-04-21 15:35 19.09025 72.85599 29 ft 15 kts 90°
2026-04-21 15:35 19.09027 72.85724 30 ft 18 kts 88°
2026-04-21 15:35 19.09029 72.85870 31 ft 21 kts 90°
2026-04-21 15:35 19.09033 72.86037 32 ft 24 kts 88°
2026-04-21 15:36 19.09036 72.86221 33 ft 26 kts 89°
2026-04-21 15:36 19.09037 72.86420 35 ft 28 kts 89°
2026-04-21 15:36 19.09043 72.86636 35 ft 31 kts 88°
2026-04-21 15:36 19.09044 72.86870 34 ft 33 kts 89°
2026-04-21 15:37 19.09047 72.87124 34 ft 35 kts 89°
2026-04-21 15:37 19.09050 72.87372 33 ft 20 kts 89°
2026-04-21 15:37 19.09113 72.87460 33 ft 14 kts 34°
2026-04-21 15:37 19.09142 72.87537 33 ft 11 kts 90°
2026-04-21 15:38 19.09142 72.87608 33 ft 9 kts 90°
2026-04-21 15:38 19.09158 72.87657 33 ft 6 kts 46°
2026-04-21 15:38 19.09190 72.87672 33 ft 4 kts 11°
2026-04-21 15:38 19.09228 72.87675 33 ft 7 kts
2026-04-21 15:39 19.09275 72.87692 33 ft 12 kts 29°
2026-04-21 15:39 19.09325 72.87721 33 ft 13 kts 29°
2026-04-21 15:39 19.09385 72.87757 33 ft 3 kts 29°
2026-04-21 15:39 19.09413 72.87768 33 ft 5 kts
2026-04-21 15:40 19.09453 72.87768 33 ft 7 kts 345°
2026-04-21 15:40 19.09475 72.87739 33 ft 2 kts 297°
2026-04-21 15:40 19.09478 72.87734 33 ft 1 kts 302°
2026-04-21 15:40 19.09482 72.87728 33 ft 1 kts 305°
2026-04-21 15:41 19.09488 72.87721 33 ft 1 kts 310°
2026-04-21 15:41 19.09490 72.87718 33 ft 0 kts 311°
2026-04-21 15:41 19.09491 72.87717 33 ft 0 kts 311°